Weather History for West Palm Beach, FL

Change the Weather History Date:

Saturday, September 24, 2011

  Actual Average Record
Temperature  
Mean Temperature 84 °F 81 °F  
Max Temperature 91 °F 88 °F 93 °F (1957)
Min Temperature 76 °F 75 °F 65 °F (1925)
Degree Days  
Heating Degree Days 0 0  
Month to date heating degree days 0 0  
Since 1 July heating degree days 0 0  
Cooling Degree Days 19 16  
Month to date cooling degree days 434 405  
Year to date cooling degree days 3789 3111  
Growing Degree Days 34 (Base 50)    
Moisture  
Dew Point 74 °F    
Average Humidity 77    
Maximum Humidity 94    
Minimum Humidity 59    
Precipitation  
Precipitation 0.95 in 0.27 in 10.40 in (1894)
Month to date precipitation 6.97 6.81  
Year to date precipitation 34.52 47.53  
Snow  
Snow 0.00 in - - ()
Month to date snowfall 0.0  
Since 1 July snowfall 0.0  
Since 1 September snowfall 0.0  
Snow Depth 0.00 in    
Sea Level Pressure  
Sea Level Pressure 29.90 in    
Wind  
Wind Speed 3 mph (SSE)    
Max Wind Speed 33 mph    
Max Gust Speed 45 mph    
Visibility 9 miles    
Events Rain , Thunderstorm    
T = Trace of Precipitation, MM = Missing Value Source: NWS Daily Summary

Daily Weather History Graph

Daily Weather History Graph

Search for Another Location

Airport:

Trip Planner

Search our weather history database for the weather conditions in past years. The results will help you decide how hot, cold, wet, or windy it might be!

Date:

Astronomy

Sep. 24, 2011 Rise Set
Actual Time 7:09 AM EDT 7:14 PM EDT
Civil Twilight 6:46 AM EDT 7:37 PM EDT
Nautical Twilight 6:19 AM EDT 8:04 PM EDT
Astronomical Twilight 5:52 AM EDT 8:31 PM EDT
Moon 4:00 AM EDT (9/24) 5:08 PM EDT (9/24)
Length of Visible Light 12h 51m
Length of Day
12h 05m
Waning Crescent, 11% of the Moon is Illuminated
Sep 24
Waning Crescent
Sep 27
New
Oct 3
First Quarter
Oct 11
Full
Oct 19
Last Quarter

Hourly Weather History & Observations

Time (EDT) Temp. Heat Index Dew Point Humidity Pressure Visibility Wind Dir Wind Speed Gust Speed Precip Events Conditions
12:53 AM 79.0 °F - 73.9 °F 84% 29.92 in 10.0 mi Calm Calm - N/A   Mostly Cloudy
1:53 AM 79.0 °F - 73.9 °F 84% 29.90 in 10.0 mi Calm Calm - N/A   Scattered Clouds
2:53 AM 77.0 °F - 73.9 °F 90% 29.90 in 10.0 mi Calm Calm - N/A   Scattered Clouds
3:53 AM 79.0 °F - 73.9 °F 84% 29.90 in 10.0 mi Calm Calm - N/A   Scattered Clouds
4:53 AM 77.0 °F - 73.0 °F 88% 29.88 in 10.0 mi Calm Calm - N/A   Scattered Clouds
5:53 AM 77.0 °F - 73.9 °F 90% 29.90 in 10.0 mi Calm Calm - N/A   Scattered Clouds
6:53 AM 77.0 °F - 73.9 °F 90% 29.90 in 10.0 mi West 3.5 mph - N/A   Scattered Clouds
7:53 AM 77.0 °F - 75.0 °F 94% 29.91 in 10.0 mi Calm Calm - N/A   Scattered Clouds
8:53 AM 81.0 °F 87.3 °F 75.9 °F 85% 29.92 in 10.0 mi Calm Calm - N/A   Scattered Clouds
9:53 AM 84.0 °F 91.2 °F 73.9 °F 72% 29.94 in 10.0 mi West 5.8 mph - N/A   Scattered Clouds
10:53 AM 86.0 °F 95.1 °F 75.0 °F 70% 29.95 in 10.0 mi Calm Calm - N/A   Scattered Clouds
11:53 AM 88.0 °F 95.6 °F 73.0 °F 61% 29.94 in 10.0 mi WSW 4.6 mph - N/A   Scattered Clouds
12:53 PM 90.0 °F 97.9 °F 73.0 °F 57% 29.92 in 10.0 mi Calm Calm - N/A   Scattered Clouds
1:53 PM 90.0 °F 100.2 °F 75.0 °F 61% 29.89 in 10.0 mi SSE 6.9 mph - N/A   Mostly Cloudy
2:43 PM 87.8 °F 97.6 °F 75.2 °F 66% 29.88 in 10.0 mi ESE 10.4 mph - N/A Thunderstorm Thunderstorm
2:53 PM 88.0 °F 98.5 °F 75.9 °F 67% 29.87 in 10.0 mi ESE 12.7 mph - N/A Thunderstorm Thunderstorm
3:11 PM 84.2 °F 92.3 °F 75.2 °F 74% 29.88 in 9.0 mi North 12.7 mph - 0.00 in Thunderstorm Thunderstorm
3:17 PM 82.4 °F 89.5 °F 75.2 °F 79% 29.89 in 2.0 mi NE 13.8 mph 25.3 mph 0.04 in Rain , Thunderstorm Heavy Thunderstorms and Rain
3:21 PM 78.8 °F - 75.2 °F 89% 29.89 in 1.0 mi NE 27.6 mph 38.0 mph 0.30 in Rain , Thunderstorm Heavy Thunderstorms and Rain
3:28 PM 77.0 °F - 75.2 °F 94% 29.89 in 0.8 mi East 31.1 mph 44.9 mph 0.55 in Rain , Thunderstorm Heavy Thunderstorms and Rain
3:32 PM 77.0 °F - 75.2 °F 94% 29.89 in 1.5 mi East 13.8 mph 44.9 mph 0.86 in Rain , Thunderstorm Heavy Thunderstorms and Rain
3:39 PM 77.0 °F - 75.2 °F 94% 29.88 in 3.0 mi East 20.7 mph 24.2 mph 0.93 in Rain , Thunderstorm Thunderstorms and Rain
3:53 PM 77.0 °F - 73.2 °F 88% 29.88 in 10.0 mi ESE 11.5 mph - 0.95 in Rain , Thunderstorm Light Thunderstorms and Rain
4:33 PM 78.8 °F - 73.4 °F 83% 29.87 in 10.0 mi SE 9.2 mph - 0.00 in   Mostly Cloudy
4:53 PM 79.0 °F - 72.5 °F 80% 29.88 in 10.0 mi South 12.7 mph 18.4 mph 0.00 in   Mostly Cloudy
4:58 PM 78.8 °F - 73.4 °F 83% 29.88 in 10.0 mi South 10.4 mph - N/A Thunderstorm Thunderstorm
5:29 PM 80.6 °F 85.4 °F 73.4 °F 79% 29.88 in 10.0 mi South 8.1 mph - N/A   Mostly Cloudy
5:53 PM 80.1 °F 84.6 °F 74.1 °F 82% 29.87 in 10.0 mi SW 4.6 mph - N/A   Mostly Cloudy
6:53 PM 79.0 °F - 73.0 °F 82% 29.88 in 10.0 mi South 4.6 mph - N/A   Mostly Cloudy
7:53 PM 80.1 °F 84.5 °F 73.9 °F 81% 29.90 in 10.0 mi West 4.6 mph - N/A   Mostly Cloudy
8:53 PM 81.0 °F 86.2 °F 73.9 °F 79% 29.92 in 10.0 mi Calm Calm - N/A   Mostly Cloudy
9:53 PM 80.1 °F 84.5 °F 73.9 °F 81% 29.94 in 10.0 mi Calm Calm - N/A   Mostly Cloudy
10:53 PM 81.0 °F 86.2 °F 73.9 °F 79% 29.94 in 10.0 mi Calm Calm - N/A   Mostly Cloudy
11:53 PM 79.0 °F - 73.9 °F 84% 29.93 in 10.0 mi Calm Calm - N/A   Mostly Cloudy